Regional Weather Roundup
Issued by NWS

Home | Current Version | Previous Version | Text Only | Print | Product List | Glossary Off
Versions: 1 2 3 4 5 6 7 8 9 10 11 12 13 14 15 16 17 18 19 20 21 22 23 24 25 26 27 28 29 30 31 32 33 34 35 36 37 38 39 40 41 42 43 44 45 46 47 48 49 50

319
ASUS43 KTOP 280359
RWRKS

WEATHER ROUNDUP FOR KANSAS
NATIONAL WEATHER SERVICE GOODLAND KS
1100 PM CDT MON MAR 27 2017

NOTE:  "FAIR" INDICATES FEW OR NO CLOUDS BELOW 12,000 FEET WITH NO
SIGNIFICANT WEATHER AND/OR OBSTRUCTIONS TO VISIBILITY.

KSZ001>006-013>018-027>032-041>047-280500-
NORTHWEST KANSAS

CITY           SKY/WX    TMP DP  RH WIND       PRES   REMARKS
GOODLAND       CLEAR     49  41  74 SE18      29.90R
HAYS             N/A     44  41  89 E7        29.98R
HILL CITY      CLEAR     44  41  89 E6        29.97R
RUSSELL        CLOUDY    44  42  93 E7        29.97R
$$

KSZ061>065-074>080-084>089-280500-
SOUTHWEST KANSAS

CITY           SKY/WX    TMP DP  RH WIND       PRES   REMARKS
DODGE CITY     CLEAR     47  41  80 SE9       29.94R
ELKHART          N/A     49  32  52 E12         N/A
GARDEN CITY    CLEAR     50  40  68 SE17      29.91R
LIBERAL        CLEAR     55  37  50 E15G21    29.91R
$$

KSZ066>073-081>083-090>101-280500-
SOUTHEAST KANSAS

CITY           SKY/WX    TMP DP  RH WIND       PRES   REMARKS
CHANUTE        CLOUDY    53  46  77 NE5       30.00R
COFFEYVILLE    CLOUDY    54  49  83 N5        29.99R
HUTCHINSON     CLOUDY    51  46  83 SE6       29.99R
MEDICINE LODGE   N/A     48  44  86 E7        29.97S
NEWTON         CLOUDY    51  47  86 E3        29.99S
PARSONS        CLOUDY    54  48  80 N3        30.00R
WICHITA INTL   CLOUDY    52  46  80 SE8       29.99R
WICHITA JABRA  CLOUDY    51  46  83 SE3       29.98S
WINFIELD       CLOUDY    53  45  74 E6        30.00R
$$

KSZ007>012-019>026-033>040-048>060-102>105-280500-
NORTHEAST KANSAS

CITY           SKY/WX    TMP DP  RH WIND       PRES   REMARKS
CONCORDIA      CLOUDY    48  46  93 E5        30.00R
EMPORIA        CLOUDY    52  48  86 NE3       29.99R
LAWRENCE       CLOUDY    52  47  83 N6        30.01R
MANHATTAN      CLOUDY    52  46  80 CALM      30.00R
OLATHE IND     CLOUDY    51  44  77 NE8       30.00R
OLATHE EXE     CLOUDY    50  46  86 N5        29.99R
SALINA         CLOUDY    53  46  77 E5        29.99S
TOPEKA BILLARD CLOUDY    52  46  80 NE6       30.00R
TOPEKA FORBES  CLOUDY    53  45  74 N6        30.00R
$$




USA.gov is the U.S. government's official web portal to all federal, state and local government web resources and services.